| time (UTC) | temp F | wind direction | speed knots | gust knots | rain 1hr in | rain 24hr in | rain mn in | humidity % | barometer mb |
| 20260502185711 | 61 | 106 | 2.6 | 12.2 | 0.00 | 0.00 | 0.00 | 39 | 1012.3 |
| 20260502185432 | 62 | 174 | 1.7 | 6.1 | 0.00 | 0.00 | 0.00 | 39 | 1012.4 |
| 20260502184711 | 63 | 28 | 1.7 | 7.8 | 0.00 | 0.00 | 0.00 | 38 | 1012.5 |
| 20260502184213 | 60 | 94 | 1.7 | 7.8 | 0.00 | 0.00 | 0.00 | 43 | 1012.6 |
| 20260502183714 | 59 | 101 | 0.9 | 3.5 | 0.00 | 0.00 | 0.00 | 41 | 1012.7 |
| 20260502183431 | 58 | 318 | 0.9 | 3.5 | 0.00 | 0.00 | 0.00 | 43 | 1012.7 |
| 20260502182712 | 58 | 209 | 0.9 | 4.3 | 0.00 | 0.00 | 0.00 | 48 | 1012.9 |
| 20260502182212 | 59 | 200 | 1.7 | 4.3 | 0.00 | 0.00 | 0.00 | 45 | 1013.0 |
| 20260502181712 | 58 | 93 | 0.9 | 3.5 | 0.00 | 0.00 | 0.00 | 45 | 1013.0 |
| 20260502181212 | 58 | 253 | 0.9 | 3.5 | 0.00 | 0.00 | 0.00 | 46 | 1013.1 |
| 20260502180707 | 57 | 53 | 0.9 | 2.6 | 0.00 | 0.00 | 0.00 | 44 | 1013.2 |
| 20260502180207 | 57 | 94 | 0.9 | 3.5 | 0.00 | 0.00 | 0.00 | 44 | 1013.2 |
| 20260502170204 | 57 | 80 | 2.6 | 7.8 | 0.00 | 0.00 | 0.00 | 47 | 1014.0 |
| 20260502164201 | 56 | 126 | 1.7 | 5.2 | 0.00 | 0.00 | 0.00 | 51 | 1014.1 |
| 20260502163702 | 56 | 86 | 2.6 | 7.0 | 0.00 | 0.00 | 0.00 | 52 | 1014.2 |
| 20260502163159 | 56 | 355 | 1.7 | 7.0 | 0.00 | 0.00 | 0.00 | 50 | 1014.2 |
| 20260502162700 | 56 | 29 | 0.9 | 3.5 | 0.00 | 0.00 | 0.00 | 50 | 1014.2 |
| 20260502162159 | 55 | 55 | 0.9 | 3.5 | 0.00 | 0.00 | 0.00 | 55 | 1014.5 |
| 20260502161658 | 55 | 315 | 1.7 | 6.1 | 0.00 | 0.00 | 0.00 | 53 | 1014.4 |
| 20260502161417 | 55 | 96 | 2.6 | 7.0 | 0.00 | 0.00 | 0.00 | 52 | 1014.4 |
| 20260502160657 | 54 | 50 | 1.7 | 7.0 | 0.00 | 0.00 | 0.00 | 52 | 1014.5 |
| 20260502160156 | 54 | 100 | 1.7 | 6.1 | 0.00 | 0.00 | 0.00 | 54 | 1014.3 |
| 20260502152154 | 55 | 71 | 1.7 | 4.3 | 0.00 | 0.00 | 0.00 | 52 | 1014.4 |
| 20260502151654 | 54 | 44 | 1.7 | 5.2 | 0.00 | 0.00 | 0.00 | 53 | 1014.5 |
| 20260502151152 | 55 | 90 | 1.7 | 5.2 | 0.00 | 0.00 | 0.00 | 54 | 1014.4 |
| 20260502150653 | 54 | 298 | 1.7 | 4.3 | 0.00 | 0.00 | 0.00 | 54 | 1014.4 |
| 20260502150154 | 53 | 74 | 2.6 | 7.0 | 0.00 | 0.00 | 0.00 | 56 | 1014.6 |
| 20260502130439 | 49 | 21 | 1.7 | 6.1 | 0.00 | 0.00 | 0.00 | 65 | 1014.3 |
| 20260502123403 | 48 | 40 | 2.6 | 9.6 | 0.00 | 0.00 | 0.00 | 67 | 1014.1 |
| 20260502122856 | 49 | 289 | 2.6 | 7.8 | 0.00 | 0.00 | 0.00 | 67 | 1014.1 |
| 20260502122612 | 49 | 355 | 1.7 | 7.0 | 0.00 | 0.00 | 0.00 | 68 | 1014.2 |
| 20260502121844 | 49 | 11 | 1.7 | 4.3 | 0.00 | 0.00 | 0.00 | 69 | 1014.1 |
| 20260502121339 | 48 | 16 | 1.7 | 4.3 | 0.00 | 0.00 | 0.00 | 69 | 1014.1 |
| 20260502120832 | 48 | 95 | 1.7 | 4.3 | 0.00 | 0.00 | 0.00 | 69 | 1014.0 |
| 20260502120326 | 48 | 277 | 1.7 | 6.1 | 0.00 | 0.00 | 0.00 | 68 | 1014.1 |
| 20260502115820 | 48 | 18 | 1.7 | 7.0 | 0.00 | 0.00 | 0.00 | 68 | 1014.2 |
| 20260502115318 | 48 | 64 | 1.7 | 7.0 | 0.00 | 0.00 | 0.00 | 69 | 1014.2 |
| 20260502114808 | 48 | 328 | 1.7 | 5.2 | 0.00 | 0.00 | 0.00 | 69 | 1014.0 |
| 20260502114303 | 48 | 42 | 1.7 | 3.5 | 0.00 | 0.00 | 0.00 | 70 | 1014.1 |
| 20260502113756 | 48 | 80 | 0.9 | 5.2 | 0.00 | 0.00 | 0.00 | 70 | 1014.2 |
| 20260502113514 | 48 | 40 | 1.7 | 5.2 | 0.00 | 0.00 | 0.00 | 69 | 1014.3 |
| 20260502112744 | 48 | 126 | 1.7 | 6.1 | 0.00 | 0.00 | 0.00 | 69 | 1014.3 |
| 20260502112239 | 47 | 49 | 3.5 | 9.6 | 0.00 | 0.00 | 0.00 | 69 | 1014.2 |
| 20260502111732 | 48 | 310 | 2.6 | 9.6 | 0.00 | 0.00 | 0.00 | 69 | 1014.1 |
| 20260502111225 | 48 | 0 | 1.7 | 7.8 | 0.00 | 0.00 | 0.00 | 70 | 1014.1 |
| 20260502110719 | 48 | 236 | 1.7 | 4.3 | 0.00 | 0.00 | 0.00 | 70 | 1014.1 |
| 20260502110216 | 48 | 103 | 1.7 | 4.3 | 0.00 | 0.00 | 0.00 | 70 | 1014.1 |
| 20260502105717 | 48 | 55 | 2.6 | 6.1 | 0.00 | 0.00 | 0.00 | 70 | 1014.1 |
| 20260502105216 | 48 | 130 | 2.6 | 6.1 | 0.00 | 0.00 | 0.00 | 70 | 1014.1 |
| 20260502104936 | 48 | 109 | 1.7 | 4.3 | 0.00 | 0.00 | 0.00 | 70 | 1014.0 |
| 20260502104217 | 48 | 35 | 1.7 | 7.8 | 0.00 | 0.00 | 0.00 | 71 | 1014.0 |
| 20260502103940 | 48 | 238 | 1.7 | 7.8 | 0.00 | 0.00 | 0.00 | 71 | 1013.8 |
| 20260502103217 | 48 | 0 | 1.7 | 6.1 | 0.00 | 0.00 | 0.00 | 71 | 1013.8 |
| 20260502102941 | 48 | 65 | 2.6 | 11.3 | 0.00 | 0.00 | 0.00 | 71 | 1013.7 |
| 20260502102215 | 48 | 39 | 2.6 | 11.3 | 0.00 | 0.00 | 0.00 | 71 | 1013.6 |
| 20260502101939 | 49 | 67 | 2.6 | 6.1 | 0.00 | 0.00 | 0.00 | 72 | 1013.6 |
| 20260502101214 | 49 | 124 | 2.6 | 7.8 | 0.00 | 0.00 | 0.00 | 72 | 1013.6 |
| 20260502100716 | 49 | 5 | 1.7 | 7.8 | 0.00 | 0.00 | 0.00 | 72 | 1013.5 |
| 20260502100214 | 49 | 38 | 1.7 | 7.8 | 0.00 | 0.00 | 0.00 | 72 | 1013.5 |
| 20260502091154 | 49 | 66 | 0.9 | 3.5 | 0.00 | 0.00 | 0.00 | 77 | 1012.6 |
| 20260502090651 | 49 | 64 | 0.9 | 5.2 | 0.00 | 0.00 | 0.00 | 78 | 1012.5 |
| 20260502090151 | 49 | 86 | 1.7 | 5.2 | 0.00 | 0.00 | 0.00 | 78 | 1012.5 |
| 20260502071145 | 50 | 84 | 0.0 | 0.0 | 0.00 | 0.00 | 0.00 | 85 | 1012.3 |
| 20260502070904 | 50 | 84 | 0.0 | 0.0 | 0.00 | 0.00 | 0.00 | 84 | 1012.4 |
| 20260502070143 | 50 | 84 | 0.0 | 0.0 | 0.00 | 0.00 | 0.00 | 84 | 1012.3 |
| 20260502065645 | 51 | 84 | 0.0 | 0.0 | 0.00 | 0.00 | 0.00 | 84 | 1012.3 |
| 20260502065141 | 51 | 84 | 0.0 | 0.0 | 0.00 | 0.00 | 0.00 | 84 | 1012.3 |
| 20260502064638 | 51 | 84 | 0.0 | 0.0 | 0.00 | 0.00 | 0.00 | 84 | 1012.3 |
| 20260502064135 | 51 | 84 | 0.0 | 0.0 | 0.00 | 0.00 | 0.00 | 84 | 1012.3 |
| 20260502063633 | 51 | 84 | 0.0 | 0.0 | 0.00 | 0.00 | 0.00 | 83 | 1012.4 |
| 20260502063133 | 51 | 84 | 0.0 | 0.0 | 0.00 | 0.00 | 0.00 | 83 | 1012.4 |
| 20260502062635 | 51 | 84 | 0.0 | 0.0 | 0.00 | 0.00 | 0.00 | 83 | 1012.3 |
| 20260502062132 | 51 | 84 | 0.0 | 0.9 | 0.00 | 0.00 | 0.00 | 83 | 1012.2 |
| 20260502061630 | 51 | 84 | 0.0 | 2.6 | 0.00 | 0.00 | 0.00 | 84 | 1012.3 |
| 20260502061130 | 52 | 76 | 0.0 | 2.6 | 0.00 | 0.00 | 0.00 | 83 | 1012.3 |
| 20260502060630 | 52 | 355 | 0.0 | 0.9 | 0.00 | 0.00 | 0.00 | 83 | 1012.2 |
| 20260502060614 | 52 | 327 | 0.0 | 0.9 | 0.00 | 0.00 | 0.00 | 83 | 1012.3 |
| 20260502055628 | 52 | 44 | 0.0 | 0.9 | 0.00 | 0.00 | 0.00 | 84 | 1012.3 |
| 20260502055127 | 52 | 42 | 0.9 | 2.6 | 0.00 | 0.00 | 0.00 | 84 | 1012.3 |
| 20260502054625 | 53 | 45 | 0.9 | 2.6 | 0.00 | 0.00 | 0.00 | 84 | 1012.3 |
| 20260502054125 | 53 | 55 | 0.0 | 1.7 | 0.00 | 0.00 | 0.00 | 84 | 1012.3 |
| 20260502053624 | 53 | 55 | 0.0 | 1.7 | 0.00 | 0.00 | 0.00 | 84 | 1012.2 |
| 20260502053123 | 53 | 39 | 0.0 | 1.7 | 0.00 | 0.00 | 0.00 | 84 | 1012.2 |
| 20260502052623 | 53 | 50 | 0.0 | 1.7 | 0.00 | 0.00 | 0.00 | 84 | 1012.4 |
| 20260502052123 | 53 | 50 | 0.0 | 0.9 | 0.00 | 0.00 | 0.00 | 84 | 1012.5 |
| 20260502051620 | 54 | 50 | 0.0 | 1.7 | 0.00 | 0.00 | 0.00 | 84 | 1012.6 |
| 20260502051117 | 54 | 50 | 0.0 | 1.7 | 0.00 | 0.00 | 0.00 | 84 | 1012.7 |
| 20260502050617 | 54 | 94 | 0.0 | 0.0 | 0.00 | 0.00 | 0.00 | 84 | 1012.6 |
| 20260502050114 | 54 | 94 | 0.0 | 0.0 | 0.00 | 0.00 | 0.00 | 83 | 1012.5 |
| 20260502045612 | 54 | 94 | 0.0 | 0.9 | 0.00 | 0.00 | 0.00 | 83 | 1012.5 |
| 20260502045110 | 55 | 94 | 0.0 | 1.7 | 0.00 | 0.00 | 0.00 | 82 | 1012.4 |
| 20260502044608 | 55 | 94 | 0.0 | 1.7 | 0.00 | 0.00 | 0.00 | 82 | 1012.5 |
| 20260502044107 | 55 | 101 | 0.0 | 1.7 | 0.00 | 0.00 | 0.00 | 82 | 1012.6 |
| 20260502043832 | 55 | 94 | 0.0 | 1.7 | 0.00 | 0.00 | 0.00 | 82 | 1012.6 |
| 20260502043103 | 55 | 100 | 0.0 | 0.9 | 0.00 | 0.00 | 0.00 | 81 | 1012.6 |
| 20260502042601 | 55 | 94 | 0.0 | 1.7 | 0.00 | 0.00 | 0.00 | 81 | 1012.6 |
| 20260502042058 | 56 | 94 | 0.0 | 1.7 | 0.00 | 0.00 | 0.00 | 79 | 1012.7 |
| 20260502041559 | 56 | 30 | 0.0 | 0.9 | 0.00 | 0.00 | 0.00 | 78 | 1012.7 |
| 20260502041329 | 56 | 30 | 0.0 | 0.9 | 0.00 | 0.00 | 0.00 | 77 | 1012.6 |
| 20260502040825 | 56 | 30 | 0.0 | 0.9 | 0.00 | 0.00 | 0.00 | 76 | 1012.5 |
| 20260502040057 | 56 | 30 | 0.0 | 1.7 | 0.00 | 0.00 | 0.00 | 76 | 1012.6 |
| 20260502035816 | 57 | 30 | 0.0 | 1.7 | 0.00 | 0.00 | 0.00 | 74 | 1012.6 |
| 20260502035054 | 57 | 319 | 0.0 | 1.7 | 0.00 | 0.00 | 0.00 | 72 | 1012.5 |
| 20260502034552 | 57 | 27 | 0.0 | 1.7 | 0.00 | 0.00 | 0.00 | 71 | 1012.3 |
| 20260502034053 | 57 | 42 | 0.0 | 1.7 | 0.00 | 0.00 | 0.00 | 69 | 1012.2 |
| 20260502033553 | 57 | 44 | 0.0 | 1.7 | 0.00 | 0.00 | 0.00 | 67 | 1012.0 |
| 20260502033047 | 57 | 254 | 0.0 | 0.9 | 0.00 | 0.00 | 0.00 | 65 | 1011.9 |
| 20260502032541 | 57 | 254 | 0.0 | 0.9 | 0.00 | 0.00 | 0.00 | 66 | 1011.8 |
| 20260502032034 | 57 | 254 | 0.0 | 1.7 | 0.00 | 0.00 | 0.00 | 64 | 1011.7 |
| 20260502031529 | 57 | 286 | 0.0 | 2.6 | 0.00 | 0.00 | 0.00 | 64 | 1011.7 |
| 20260502031024 | 57 | 22 | 0.0 | 2.6 | 0.00 | 0.00 | 0.00 | 63 | 1011.6 |
| 20260502030517 | 57 | 248 | 0.0 | 2.6 | 0.00 | 0.00 | 0.00 | 64 | 1011.5 |
| 20260502030012 | 57 | 254 | 0.9 | 2.6 | 0.00 | 0.00 | 0.00 | 63 | 1011.6 |
| 20260502025506 | 57 | 40 | 0.9 | 2.6 | 0.00 | 0.00 | 0.00 | 63 | 1011.5 |
| 20260502025000 | 57 | 242 | 0.9 | 2.6 | 0.00 | 0.00 | 0.00 | 61 | 1011.4 |
| 20260502024454 | 57 | 58 | 0.0 | 1.7 | 0.00 | 0.00 | 0.00 | 61 | 1011.3 |
| 20260502023947 | 57 | 58 | 0.9 | 1.7 | 0.00 | 0.00 | 0.00 | 61 | 1011.3 |
| 20260502023442 | 57 | 82 | 0.0 | 1.7 | 0.00 | 0.00 | 0.00 | 60 | 1011.1 |
| 20260502022935 | 57 | 82 | 0.9 | 1.7 | 0.00 | 0.00 | 0.00 | 59 | 1011.0 |
| 20260502022429 | 57 | 82 | 0.9 | 1.7 | 0.00 | 0.00 | 0.00 | 59 | 1010.9 |
| 20260502021923 | 57 | 82 | 0.0 | 1.7 | 0.00 | 0.00 | 0.00 | 58 | 1010.8 |
| 20260502021637 | 57 | 82 | 0.0 | 1.7 | 0.00 | 0.00 | 0.00 | 58 | 1010.8 |
| 20260502021130 | 57 | 82 | 0.0 | 1.7 | 0.00 | 0.00 | 0.00 | 58 | 1010.7 |
| 20260502020405 | 58 | 82 | 0.0 | 1.7 | 0.00 | 0.00 | 0.00 | 57 | 1010.7 |
| 20260502015900 | 58 | 82 | 0.0 | 0.9 | 0.00 | 0.00 | 0.00 | 58 | 1010.8 |
| 20260502015617 | 58 | 113 | 0.0 | 0.0 | 0.00 | 0.00 | 0.00 | 58 | 1010.7 |
| 20260502014847 | 58 | 113 | 0.0 | 0.0 | 0.00 | 0.00 | 0.00 | 57 | 1010.6 |
| 20260502014341 | 59 | 113 | 0.0 | 0.0 | 0.00 | 0.00 | 0.00 | 56 | 1010.6 |
| 20260502013835 | 59 | 113 | 0.0 | 0.0 | 0.00 | 0.00 | 0.00 | 55 | 1010.6 |
| 20260502013329 | 59 | 113 | 0.0 | 0.0 | 0.00 | 0.00 | 0.00 | 56 | 1010.5 |
| 20260502012823 | 59 | 113 | 0.0 | 0.9 | 0.00 | 0.00 | 0.00 | 55 | 1010.5 |
| 20260502012317 | 59 | 113 | 0.0 | 0.9 | 0.00 | 0.00 | 0.00 | 53 | 1010.5 |
| 20260502011811 | 60 | 113 | 0.0 | 0.9 | 0.00 | 0.00 | 0.00 | 51 | 1010.3 |
| 20260502011305 | 60 | 146 | 0.0 | 0.9 | 0.00 | 0.00 | 0.00 | 52 | 1010.2 |
| 20260502011249 | 60 | 146 | 0.0 | 0.9 | 0.00 | 0.00 | 0.00 | 53 | 1010.1 |
| 20260502010511 | 60 | 150 | 0.0 | 0.0 | 0.00 | 0.00 | 0.00 | 53 | 1010.0 |
| 20260502005747 | 61 | 150 | 0.0 | 0.0 | 0.00 | 0.00 | 0.00 | 54 | 1010.0 |
| 20260502005243 | 61 | 150 | 0.0 | 0.0 | 0.00 | 0.00 | 0.00 | 53 | 1010.0 |
| 20260502004959 | 61 | 150 | 0.0 | 0.0 | 0.00 | 0.00 | 0.00 | 52 | 1009.9 |
| 20260502004230 | 61 | 150 | 0.0 | 0.0 | 0.00 | 0.00 | 0.00 | 51 | 1009.8 |
| 20260502003723 | 62 | 150 | 0.0 | 0.0 | 0.00 | 0.00 | 0.00 | 51 | 1009.8 |
| 20260502003222 | 62 | 150 | 0.0 | 0.0 | 0.00 | 0.00 | 0.00 | 49 | 1009.7 |
| 20260502002945 | 62 | 150 | 0.0 | 0.9 | 0.00 | 0.00 | 0.00 | 49 | 1009.7 |
| 20260502002222 | 62 | 150 | 0.0 | 0.9 | 0.00 | 0.00 | 0.00 | 47 | 1009.7 |
| 20260502001719 | 62 | 150 | 0.0 | 0.0 | 0.00 | 0.00 | 0.00 | 48 | 1009.5 |
| 20260502001218 | 63 | 150 | 0.0 | 0.9 | 0.00 | 0.00 | 0.00 | 46 | 1009.7 |
| 20260502000716 | 63 | 150 | 0.0 | 0.9 | 0.00 | 0.00 | 0.00 | 46 | 1009.7 |
| 20260502000214 | 63 | 150 | 0.0 | 0.0 | 0.00 | 0.00 | 0.00 | 45 | 1009.6 |
| 20260501235712 | 64 | 150 | 0.0 | 0.0 | 0.00 | 0.00 | 0.00 | 44 | 1009.7 |
| 20260501235211 | 64 | 150 | 0.0 | 0.9 | 0.00 | 0.00 | 0.00 | 43 | 1009.6 |
| 20260501234712 | 64 | 150 | 0.0 | 0.9 | 0.00 | 0.00 | 0.00 | 43 | 1009.5 |
| 20260501234210 | 64 | 150 | 0.0 | 0.9 | 0.00 | 0.00 | 0.00 | 44 | 1009.6 |
| 20260501233707 | 65 | 150 | 0.0 | 1.7 | 0.00 | 0.00 | 0.00 | 41 | 1009.6 |
| 20260501233435 | 65 | 150 | 0.0 | 1.7 | 0.00 | 0.00 | 0.00 | 40 | 1009.6 |
| 20260501232934 | 65 | 215 | 0.0 | 1.7 | 0.00 | 0.00 | 0.00 | 40 | 1009.5 |
| 20260501232414 | 65 | 96 | 0.0 | 1.7 | 0.00 | 0.00 | 0.00 | 40 | 1009.3 |
| 20260501232300 | 65 | 143 | 0.0 | 1.7 | 0.00 | 0.00 | 0.00 | 39 | 1009.4 |
| 20260501231206 | 65 | 89 | 0.0 | 1.7 | 0.00 | 0.00 | 0.00 | 39 | 1009.4 |
| 20260501230706 | 65 | 89 | 0.9 | 3.5 | 0.00 | 0.00 | 0.00 | 38 | 1009.3 |
| 20260501230206 | 66 | 111 | 0.9 | 3.5 | 0.00 | 0.00 | 0.00 | 38 | 1009.4 |
| 20260501225700 | 66 | 102 | 1.7 | 4.3 | 0.00 | 0.00 | 0.00 | 36 | 1009.4 |
| 20260501225155 | 66 | 153 | 1.7 | 7.0 | 0.00 | 0.00 | 0.00 | 35 | 1009.5 |
| 20260501224912 | 66 | 240 | 0.9 | 7.0 | 0.00 | 0.00 | 0.00 | 36 | 1009.5 |
| 20260501224402 | 66 | 130 | 0.9 | 2.6 | 0.00 | 0.00 | 0.00 | 36 | 1009.6 |
| 20260501223637 | 67 | 113 | 0.9 | 3.5 | 0.00 | 0.00 | 0.00 | 36 | 1009.7 |
| 20260501223131 | 67 | 130 | 0.9 | 3.5 | 0.00 | 0.00 | 0.00 | 36 | 1009.7 |
| 20260501222624 | 67 | 158 | 0.9 | 6.1 | 0.00 | 0.00 | 0.00 | 36 | 1009.7 |
| 20260501222118 | 67 | 134 | 1.7 | 6.1 | 0.00 | 0.00 | 0.00 | 36 | 1009.8 |
| 20260501221613 | 67 | 146 | 1.7 | 6.1 | 0.00 | 0.00 | 0.00 | 35 | 1009.8 |
| 20260501221107 | 67 | 160 | 1.7 | 7.8 | 0.00 | 0.00 | 0.00 | 35 | 1009.8 |
| 20260501220600 | 67 | 350 | 2.6 | 7.8 | 0.00 | 0.00 | 0.00 | 34 | 1009.8 |
| 20260501220317 | 67 | 43 | 1.7 | 7.0 | 0.00 | 0.00 | 0.00 | 35 | 1009.8 |
| 20260501215548 | 67 | 103 | 0.9 | 6.1 | 0.00 | 0.00 | 0.00 | 35 | 1009.8 |
| 20260501215043 | 66 | 180 | 1.7 | 8.7 | 0.00 | 0.00 | 0.00 | 34 | 1009.7 |
| 20260501214535 | 67 | 139 | 1.7 | 8.7 | 0.00 | 0.00 | 0.00 | 33 | 1009.8 |
| 20260501214250 | 67 | 121 | 1.7 | 5.2 | 0.00 | 0.00 | 0.00 | 33 | 1009.8 |
| 20260501213745 | 67 | 174 | 1.7 | 7.0 | 0.00 | 0.00 | 0.00 | 34 | 1009.9 |
| 20260501213018 | 67 | 200 | 1.7 | 7.0 | 0.00 | 0.00 | 0.00 | 33 | 1009.9 |
| 20260501212739 | 67 | 336 | 1.7 | 6.1 | 0.00 | 0.00 | 0.00 | 34 | 1010.0 |
| 20260501212005 | 67 | 151 | 1.7 | 7.0 | 0.00 | 0.00 | 0.00 | 33 | 1010.2 |
| 20260501211501 | 67 | 15 | 2.6 | 9.6 | 0.00 | 0.00 | 0.00 | 33 | 1010.2 |
| 20260501210955 | 67 | 225 | 1.7 | 9.6 | 0.00 | 0.00 | 0.00 | 32 | 1010.2 |
| 20260501210448 | 67 | 344 | 2.6 | 7.0 | 0.00 | 0.00 | 0.00 | 34 | 1010.3 |
| 20260501205942 | 67 | 302 | 2.6 | 8.7 | 0.00 | 0.00 | 0.00 | 35 | 1010.3 |
| 20260501205436 | 67 | 145 | 1.7 | 8.7 | 0.00 | 0.00 | 0.00 | 35 | 1010.2 |
| 20260501204930 | 67 | 97 | 1.7 | 7.8 | 0.00 | 0.00 | 0.00 | 35 | 1010.2 |
| 20260501204425 | 68 | 272 | 2.6 | 9.6 | 0.00 | 0.00 | 0.00 | 35 | 1010.2 |
| 20260501204407 | 68 | 267 | 2.6 | 9.6 | 0.00 | 0.00 | 0.00 | 32 | 1010.1 |
| 20260501203412 | 68 | 217 | 1.7 | 6.1 | 0.00 | 0.00 | 0.00 | 32 | 1010.1 |
| 20260501202907 | 69 | 102 | 1.7 | 6.1 | 0.00 | 0.00 | 0.00 | 33 | 1010.2 |
| 20260501202407 | 69 | 156 | 1.7 | 7.0 | 0.00 | 0.00 | 0.00 | 35 | 1010.4 |
| 20260501201907 | 69 | 99 | 1.7 | 7.8 | 0.00 | 0.00 | 0.00 | 31 | 1010.5 |
| 20260501201408 | 70 | 90 | 1.7 | 7.8 | 0.00 | 0.00 | 0.00 | 32 | 1010.5 |
| 20260501201132 | 70 | 121 | 1.7 | 6.1 | 0.00 | 0.00 | 0.00 | 33 | 1010.6 |
| 20260501200408 | 69 | 279 | 2.6 | 8.7 | 0.00 | 0.00 | 0.00 | 35 | 1010.7 |
| 20260501195908 | 69 | 154 | 2.6 | 8.7 | 0.00 | 0.00 | 0.00 | 32 | 1011.0 |
| 20260501195407 | 69 | 143 | 1.7 | 6.1 | 0.00 | 0.00 | 0.00 | 32 | 1010.8 |
| 20260501194907 | 69 | 126 | 1.7 | 5.2 | 0.00 | 0.00 | 0.00 | 36 | 1010.9 |
| 20260501194630 | 70 | 75 | 2.6 | 8.7 | 0.00 | 0.00 | 0.00 | 33 | 1011.0 |
| 20260501193903 | 69 | 228 | 2.6 | 8.7 | 0.00 | 0.00 | 0.00 | 33 | 1011.1 |
| 20260501193402 | 69 | 138 | 1.7 | 7.8 | 0.00 | 0.00 | 0.00 | 34 | 1011.2 |
| 20260501193119 | 69 | 178 | 2.6 | 7.8 | 0.00 | 0.00 | 0.00 | 36 | 1011.5 |
| 20260501193001 | 70 | 276 | 1.7 | 7.8 | 0.00 | 0.00 | 0.00 | 34 | 1011.5 |
| 20260501191904 | 68 | 239 | 2.6 | 7.8 | 0.00 | 0.00 | 0.00 | 33 | 1011.6 |
| 20260501191403 | 68 | 285 | 1.7 | 7.0 | 0.00 | 0.00 | 0.00 | 33 | 1011.7 |
| 20260501190903 | 68 | 293 | 2.6 | 8.7 | 0.00 | 0.00 | 0.00 | 34 | 1011.9 |
| 20260501190856 | 68 | 253 | 2.6 | 8.7 | 0.00 | 0.00 | 0.00 | 33 | 1012.0 |
| 20260501185904 | 69 | 253 | 1.7 | 6.1 | 0.00 | 0.00 | 0.00 | 32 | 1011.9 |